METEOR 2-17 DEB, 35367

Orbit data source: Space-Track

METEOR 2-17 DEB, 35367 is space debris in LEO originally from a launch on Sat, 30 Jan 1988 UTC launched from the Plesetsk Missile And Space Complex (PKMTR). Debris objects in space refer to the collection of defunct objects orbiting the Earth. Examples of debris include non-operational satellites, rocket bodies, and fragments generated from explosions, collisions, or faulty payload assembly.

Loading next visibility...
Identifier
35367, 1988-005AB
Orbit
LEO
Country
Flag of CISCIS
Related business
Manufacturer
Unknown
Mission
Spacecraft
Bus & Motor
Unknown
Mass
Unknown
Launch date (UTC)
1988-01-30 (38 years ago)
Launch vehicle
Unknown
Launch site
Plesetsk Missile And Space Complex (PKMTR)
Object type
Payload
Rocket body
Debris
Shape & HBR
Unknown
Radar Cross Section
Small (<0.1 m²)

Expand to show TLE details & history
Last TLE update: 2 days ago

TLE from 2 days ago
0 METEOR 2-17 DEB
1 35367U 88005AB  25259.86988302  .00002066  00000-0  14268-2 0  9999
2 35367  82.5192 127.6832 0016067  25.4662 351.3668 13.98674942295479
Epoch: 2025-09-16T20:52Z
TLE epoch observation values (Epoch: 2025-09-16T20:52:37.892Z)
Latitude
16.64255°
Longitude
-179.29095°
Altitude
889.114 km
Speed
7.415 km/s
True Right ascension
08h 39m 41s
True Declination
16° 33' 00"
Sunlit
Object was in daylight at epoch
Visualization orbit readout
Latitude
Unknown
Longitude
Unknown
Altitude
Unknown
Speed
Unknown
Apparent Right ascension
Unknown
Apparent Declination
Unknown
Sunlit
N/A
Visualization observer readout
Local Sidereal Time
14:38:50
Azimuth
Unknown
Elevation
Unknown
Doppler factor
Unknown
Orbital elements
Apogee altitude
907.207 km
Perigee altitude
883.834 km
Semi-major axis
7,273.657 km
Eccentricity
0.00161
Inclination
82.5192°
RAAN
127.6832°
Arg. of periapsis
25.4662°
True anomaly
351.33911°
Mean anomaly
351.3668°
Eccentric anomaly
351.35296°
Mean motion
3.49876 °/min
Orbital period
102.89 mins
BSTAR
0.0014268
Loading maneuver chart data...
Computing Atmospheric mass density...
Loading historical data...
Loading historical data...
Loading historical data...
Loading historical data...
Loading historical data...
Loading historical data...
Loading historical data...

Documentation

Showing up to 5 results
|